EA2AFZ-W Weather Reports


Display with metric or nautical units.
time (UTC)temp
F
wind
direction
speed
MPH
gust
MPH
rain 1hr
in
rain 24hr
in
rain mn
in
humidity
%
barometer
mb
20260508001604 55 320 11.0 11.0 0.00 0.00 0.00 86 1010.0
20260507234602 55 320 11.0 11.0 0.00 0.00 0.00 82 1011.0
20260507231600 57 320 11.0 11.0 0.00 0.00 0.00 87 1011.0
20260507224557 57 320 11.0 11.0 0.00 0.00 0.00 85 1011.0
20260507221556 57 320 11.0 11.0 0.00 0.00 0.00 81 1011.0
20260507214553 57 320 11.0 11.0 0.00 0.00 0.00 71 1011.0
20260507211551 58 320 11.0 11.0 0.00 0.00 0.00 70 1010.0
20260507204549 58 320 11.0 11.0 0.00 0.00 0.00 64 1011.0
20260507201547 59 320 11.0 11.0 0.00 0.00 0.00 61 1010.0
20260507194545 60 320 11.0 11.0 0.00 0.00 0.00 58 1011.0
20260507191543 60 320 11.0 11.0 0.00 0.00 0.00 56 1010.0
20260507184540 60 320 11.0 11.0 0.00 0.00 0.00 62 1010.0
20260507181538 61 320 11.0 11.0 0.00 0.00 0.00 60 1009.0
20260507174536 62 320 11.0 11.0 0.00 0.00 0.00 57 1009.0
20260507171534 64 320 11.0 11.0 0.00 0.00 0.00 55 1009.0
20260507164532 66 320 12.0 12.0 0.00 0.00 0.00 47 1009.0
20260507161529 70 10 14.0 14.0 0.00 0.00 0.00 47 1009.0
20260507154527 71 0 8.0 8.0 0.00 0.00 0.00 55 1009.0
20260507151525 71 70 11.0 11.0 0.00 0.00 0.00 56 1009.0
20260507144522 70 90 14.0 14.0 0.00 0.00 0.00 49 1009.0
20260507141521 70 70 11.0 11.0 0.00 0.00 0.00 49 1009.0
20260507134518 71 80 8.0 8.0 0.00 0.00 0.00 48 1009.0
20260507131516 73 0 4.0 4.0 0.00 0.00 0.00 47 1009.0
20260507124515 68 0 4.0 4.0 0.00 0.00 0.00 49 1009.0
20260507121512 67 0 3.0 3.0 0.00 0.00 0.00 52 1010.0
20260507114509 65 194 5.0 5.0 0.00 0.00 0.00 55 1010.0
20260507111509 65 194 5.0 5.0 0.00 0.00 0.00 54 1011.0
20260507104506 63 0 1.0 1.0 0.00 0.00 0.00 63 1011.0
20260507101604 61 59 2.0 2.0 0.00 0.00 0.00 65 1012.0
20260507094602 59 151 1.0 1.0 0.00 0.00 0.00 67 1012.0
20260507091559 59 151 1.0 1.0 0.00 0.00 0.00 69 1012.0
20260507084556 58 151 1.0 1.0 0.00 0.00 0.00 74 1012.0
20260507081555 56 151 1.0 1.0 0.00 0.00 0.00 78 1013.0
20260507074552 55 151 1.0 1.0 0.00 0.00 0.00 81 1013.0
20260507071551 54 151 1.0 1.0 0.00 0.00 0.00 83 1013.0
20260507064549 54 151 2.0 2.0 0.00 0.00 0.00 84 1013.0
20260507061546 45 320 11.0 11.0 0.00 0.00 0.00 83 1013.0
20260507054544 45 320 11.0 11.0 0.00 0.00 0.00 82 1013.0
20260507051541 45 320 11.0 11.0 0.00 0.00 0.00 82 1013.0
20260507044540 46 320 11.0 11.0 0.00 0.00 0.00 82 1013.0
20260507041538 46 320 11.0 11.0 0.00 0.00 0.00 82 1013.0
20260507034535 46 320 11.0 11.0 0.00 0.00 0.00 82 1013.0
20260507031534 46 320 11.0 11.0 0.00 0.00 0.00 82 1013.0
20260507024531 46 320 11.0 11.0 0.00 0.00 0.00 81 1014.0
20260507021529 47 320 11.0 11.0 0.00 0.00 0.00 80 1014.0
20260507014527 47 320 11.0 11.0 0.00 0.00 0.00 82 1014.0
20260507011526 48 320 11.0 11.0 0.00 0.00 0.00 82 1014.0
20260507004522 49 320 11.0 11.0 0.00 0.00 0.00 83 1014.0